W3GWM Weather Reports


time (UTC)temp
C
wind
direction
speed
KPH
gust
KPH
rain 1hr
cm
rain 24hr
cm
rain mn
cm
humidity
%
barometer
mb
20260506103048 11 0 0.0 0.0 0.08 0.13 0.13 77 1007.7
20260506101546 11 0 0.0 0.0 0.08 0.13 0.13 76 1007.7
20260506100051 11 0 0.0 0.0 0.05 0.08 0.08 76 1007.4
20260506094607 11 0 0.0 0.0 0.05 0.08 0.08 75 1007.3
20260506093055 11 0 0.0 0.0 0.05 0.05 0.05 74 1007.2
20260506091549 12 0 0.0 0.0 0.05 0.05 0.05 72 1007.4
20260506090049 12 0 0.0 0.0 0.03 0.03 0.03 70 1007.3
20260506084554 12 0 0.0 0.0 0.03 0.03 0.03 68 1007.4
20260506083103 12 0 0.0 0.0 0.00 0.00 0.00 67 1007.9
20260506081555 12 0 0.0 0.0 0.00 0.00 0.00 67 1008.1
20260506073048 12 0 0.0 0.0 0.00 0.00 0.00 66 1007.4
20260506071546 12 0 0.0 0.0 0.00 0.00 0.00 66 1007.4
20260506061551 13 0 0.0 0.0 0.00 0.00 0.00 65 1008.1
20260506044552 13 0 0.0 1.6 0.00 0.00 0.00 67 1009.1
20260506043053 14 0 0.0 0.0 0.00 0.00 0.00 66 1009.0
20260506041551 15 0 0.0 4.8 0.00 0.00 0.00 65 1009.0
20260506040101 15 0 0.0 9.7 0.00 0.00 0.00 64 1009.2
20260506034558 15 0 0.0 4.8 0.00 0.00 0.00 63 1009.2
20260506033054 15 57 1.6 8.0 0.00 0.00 0.00 60 1009.2
20260506031558 15 0 0.0 1.6 0.00 0.00 0.00 56 1008.9
20260506030052 16 0 0.0 1.6 0.00 0.00 0.00 54 1008.6
20260506024546 16 65 1.6 1.6 0.00 0.00 0.00 51 1008.6
20260506023048 17 0 0.0 0.0 0.00 0.00 0.00 48 1008.7
20260506021556 18 0 0.0 6.4 0.00 0.00 0.00 45 1008.6
20260506020047 18 0 0.0 3.2 0.00 0.00 0.00 45 1008.6
20260506014548 19 0 0.0 3.2 0.00 0.00 0.00 43 1008.3
20260506013047 19 58 0.0 4.8 0.00 0.00 0.00 43 1008.5
20260506011553 19 0 0.0 0.0 0.00 0.00 0.00 43 1008.3
20260506010048 20 0 0.0 0.0 0.00 0.00 0.00 41 1008.2
20260506004549 21 0 0.0 3.2 0.00 0.00 0.00 39 1008.1
20260506003046 21 0 0.0 3.2 0.00 0.00 0.00 38 1007.8
20260506001550 21 37 1.6 6.4 0.00 0.00 0.00 36 1007.8
20260506000049 21 329 3.2 8.0 0.00 0.00 0.00 36 1007.8
20260505234557 22 187 8.0 17.7 0.00 0.00 0.00 34 1007.8
20260505233105 22 261 6.4 12.9 0.00 0.00 0.00 33 1007.5
20260505231554 22 59 8.0 19.3 0.00 0.00 0.00 31 1007.3
20260505230051 23 224 6.4 16.1 0.00 0.00 0.00 30 1007.3
20260505224551 23 321 9.7 27.4 0.00 0.00 0.00 30 1007.3
20260505223054 23 295 6.4 16.1 0.00 0.00 0.00 29 1007.0
20260505221551 23 311 6.4 19.3 0.00 0.00 0.00 28 1006.8
20260505220047 23 288 11.3 32.2 0.00 0.00 0.00 27 1006.8
20260505214555 24 213 11.3 32.2 0.00 0.00 0.00 26 1006.6
20260505213053 24 260 9.7 38.6 0.00 0.00 0.00 26 1006.4
20260505211551 25 132 6.4 25.7 0.00 0.00 0.00 28 1005.9
20260505210048 24 186 6.4 20.9 0.00 0.00 0.00 30 1006.0
20260505204552 24 136 9.7 29.0 0.00 0.00 0.00 29 1006.1
20260505203050 24 257 11.3 30.6 0.00 0.00 0.00 29 1006.0
20260505201557 24 122 12.9 24.1 0.00 0.00 0.00 30 1005.9
20260505200051 23 245 6.4 17.7 0.00 0.00 0.00 31 1006.1
20260505194606 23 238 11.3 32.2 0.00 0.00 0.00 30 1006.1
20260505193049 23 98 9.7 29.0 0.00 0.00 0.00 30 1005.9
20260505191546 24 195 6.4 20.9 0.00 0.00 0.00 28 1005.8
20260505190051 25 160 9.7 27.4 0.00 0.00 0.00 28 1005.8
20260505184549 25 333 12.9 30.6 0.00 0.00 0.00 26 1006.0
20260505183051 25 172 9.7 29.0 0.00 0.00 0.00 29 1006.6
20260505181552 24 266 12.9 33.8 0.00 0.00 0.00 30 1007.0
20260505180053 24 105 11.3 30.6 0.00 0.00 0.00 31 1006.9
20260505174555 24 248 9.7 27.4 0.00 0.00 0.00 32 1007.2
20260505173049 23 255 8.0 29.0 0.00 0.00 0.00 33 1007.7
20260505171553 24 280 9.7 33.8 0.00 0.00 0.00 33 1007.5
20260505170054 24 158 9.7 24.1 0.00 0.00 0.00 33 1007.1
20260505164616 23 227 8.0 40.2 0.00 0.00 0.00 34 1007.3
20260505163053 23 115 14.5 32.2 0.00 0.00 0.00 34 1007.8
20260505161607 23 149 8.0 27.4 0.00 0.00 0.00 35 1008.1
20260505153054 22 160 11.3 32.2 0.00 0.00 0.00 36 1008.3
20260505151554 22 283 12.9 33.8 0.00 0.00 0.00 37 1008.6
20260505130113 18 240 8.0 35.4 0.00 0.00 0.00 46 1009.2
20260505124615 19 265 8.0 17.7 0.00 0.00 0.00 40 1009.2
20260505123115 19 186 3.2 11.3 0.00 0.00 0.00 44 1008.9
20260505121556 18 85 3.2 9.7 0.00 0.00 0.00 46 1009.1
20260505120109 17 123 1.6 9.7 0.00 0.00 0.00 47 1008.9
20260505114552 17 90 3.2 11.3 0.00 0.00 0.00 47 1008.9
20260505113107 16 93 4.8 11.3 0.00 0.00 0.00 48 1009.1
20260505111553 16 253 3.2 8.0 0.00 0.00 0.00 49 1009.0
20260505110111 16 0 0.0 4.8 0.00 0.00 0.00 47 1008.6